Погода в Мокроусове

Россия / Курганская область     55°48′30″N   66°46′12″E
темп.,
°C
ветер,
м/с
пор.,
м/с
влажн.,
%
обл.,
%
осадки,
мм/ч
давл.,
гПа
погр.,
м
24 июля, сб
сб2423:00+19ссв3493100 3.2 100290
02:00+18ссв5995100 0.8 1001211
05:00+18ссз2395100 1.0 100254
08:00+20з2285100 0.0 1003250
11:00+22ююв2377100 0.0 1003361
14:00+26ю356014 0.1 1002987
17:00+23юз5784100 4.9 1002498
20:00+19ю2296100 13.5 100382
25 июля, вс
вс2523:00+18всв1299100 20.7 100497
02:00+18юв3698100 2.4 1003227
05:00+17ссз4799100 3.1 1004271
08:00+15ссз51196100 0.2 1006463
11:00+18ссз697839 0.3 1007602
14:00+23ссз57545 0.0 10071517
17:00+21ссз366326 0.2 1008547
20:00+16ссз5885100 5.4 1010188
26 июля, пн
пн2623:00+14сз51089100 10.4 1012279
02:00+13сз5128294 0.0 1012293
05:00+9сз512812 0.0 1014209
08:00+14ссз596514 0.0 1015420
11:00+17сз69535 0.0 10161444
14:00+16сз6954100 0.0 10161371
17:00+17зсз585135 0.0 10161706
20:00+14зсз3864100 0.0 1016326
27 июля, вт
вт2723:00+13з3764100 0.0 1016198
02:00+13зсз4866100 0.0 1015233
05:00+10з377594 0.0 1015117
08:00+14з496997 0.0 1015315
11:00+19з79525 0.0 10131400
14:00+19зюз695982 0.0 10121300
17:00+19з7106998 0.8 10111317
20:00+15з5108533 0.8 1010348
28 июля, ср
ср2823:00+12зюз3797100 1.3 1010136
02:00+11з359816 1.6 1009115
05:00+10сз379838 1.7 1009155
08:00+13ссз5787100 0.4 1011429
11:00+14ссз56758 0.4 1012633
14:00+17сз6752100 0.3 10121982
17:00+17сз4750100 0.3 10131548
20:00+14ююв226370 0.0 101213